Regional Weather Roundup
Issued by NWS

Home | Current Version | Previous Version | Graphics & Text | Print | Product List | Glossary On
Versions: 1 2 3 4 5 6 7 8 9 10 11 12 13 14 15 16 17 18 19 20 21 22 23 24 25 26 27 28 29 30 31 32 33 34 35 36 37 38 39 40 41 42 43 44 45 46 47 48 49
000
ASUS45 KTFX 291210
RWRMT
MONTANA REGIONAL WEATHER ROUNDUP
NATIONAL WEATHER SERVICE GREAT FALLS MT
600 AM MDT MON JUN 29 2015

NOTE: "FAIR" INDICATES FEW OR NO CLOUDS BELOW 12000 FEET WITH NO
SIGNIFICANT WEATHER AND/OR OBSTRUCTIONS TO VISIBILITY.

MTZ001>007-043-291300-
WEST OF THE DIVIDE

CITY           SKY/WX    TMP DP  RH WIND       PRES   REMARKS
KALISPELL      PTSUNNY   65  56  72 CALM      29.99R
MISSOULA       CLOUDY    69  51  52 VRB5      30.02R
BUTTE          CLEAR     64  46  52 CALM      30.22S
MULLAN PASS    CLOUDY    69  46  43 NW5       30.21R
DEER LODGE       N/A     57  48  72 W3        30.19S
EUREKA           N/A     68  54  60 CALM      29.99R
HAMILTON         N/A     66  50  55 S7        30.05R
PLAINS           N/A     66  55  67 CALM      29.98S
RONAN            N/A     65  56  72 NE2       30.04R
THOMPSON FALLS   N/A     66  53  63 CALM      30.01S
$$

MTZ008-052>055-291300-
SOUTHWEST MONTANA

CITY           SKY/WX    TMP DP  RH WIND       PRES   REMARKS
BOZEMAN        CLEAR     60  48  64 S6        30.16R
DILLON         CLEAR     59  44  57 S3        30.20R
W YELLOWSTONE  CLEAR     45  41  87 CALM      30.35R
THREE FORKS      N/A     57  -5   8 CALM      30.13R
TWIN BRIDGES     N/A     59  46  61 SE2       30.16R
$$

MTZ009-010-012-014-046-048-049-054-291300-
EAST SLOPES AND CENTRAL MONTANA

CITY           SKY/WX    TMP DP  RH WIND       PRES   REMARKS
CUT BANK       PTCLDY    57  52  83 W6        30.13R
GREAT FALLS    PTCLDY    61  46  57 W6        30.11R
MALMSTROM AFB  PTCLDY    61  49  64 N1        30.10R
HELENA         CLEAR     65  46  50 CALM      30.13R
CONRAD           N/A     54  54 100 CALM      30.12S
$$

MTZ011-013-016-021-045-047-050-051-291300-
NORTH CENTRAL MONTANA

CITY           SKY/WX    TMP DP  RH WIND       PRES   REMARKS
HAVRE          CLEAR     64  53  67 E7        30.06R
LEWISTOWN      PTCLDY    59  48  67 SE8       30.14
CHINOOK          N/A     64  55  72 CALM      30.05S
FORT BENTON      N/A     61  48  63 CALM      30.07S
$$

MTZ017>020-022>027-061-062-291300-
NORTHEAST MONTANA

CITY           SKY/WX    TMP DP  RH WIND       PRES   REMARKS
GLASGOW        CLEAR     68  53  58 SE3       30.00R
JORDAN           N/A     61  55  81 W6        30.03R
SIDNEY         CLEAR     61  54  77 CALM      30.01R
WOLF POINT     CLEAR     59  55  87 VRB5      30.00R
MALTA            N/A     60  52  75 CALM      30.00R
PLENTYWOOD       N/A     66  59  77 CALM      30.01R
POPLAR           N/A     61  57  88 CALM      30.00R
SCOBEY           N/A     56  49  77 CALM      30.00R
$$

MTZ028>42-056>058-291300-
SOUTHCENTRAL AND SOUTHEAST MONTANA

CITY           SKY/WX    TMP DP  RH WIND       PRES   REMARKS
BAKER          CLEAR     61  58  90 E3        30.06R
BILLINGS       PTCLDY    65  53  65 SW9       30.11R
LIVINGSTON     PTCLDY    57  48  72 W5        30.19R
MILES CITY     CLEAR     64  57  78 NW5       30.03R
BIG TIMBER       N/A     63  50  63 SW6       30.19R
EKALAKA          N/A     66  55  67 SE5       30.06R
FORSYTH          N/A     66  57  72 CALM      30.04R
LAUREL           N/A     59  49  69 CALM      30.09R
ROUNDUP          N/A     63  53  69 S9        30.01S
$$

REGIONAL REPORTS...DAKOTAS

CITY           SKY/WX    TMP DP  RH WIND       PRES   REMARKS
WILLISTON      PTCLDY    63  57  81 CALM      30.00R
MINOT          PTCLDY    68  58  70 SW8       29.94R
DICKINSON      CLEAR     59  56  89 W5        30.02R
BEACH          FAIR      59  59 100 S5        30.05S
CROSBY         FAIR      59  59 100 SW6       30.00R
BISMARCK       CLEAR     60  56  86 CALM      29.98R
GRAND FORKS    CLOUDY    63  60  90 W7        29.82R
FARGO          SUNNY     64  60  87 W5        29.86R FOG
BUFFALO SD       N/A     63  56  78 NE5       30.00R
RAPID CITY     CLOUDY    67  57  70 NW7       30.07F
$$

REGIONAL REPORTS...WYOMING/IDAHO/WASHINGTON

CITY           SKY/WX    TMP DP  RH WIND       PRES   REMARKS
GILLETTE       CLEAR     67  53  61 CALM      30.14R
SHERIDAN       CLEAR     62  49  62 NE5       30.12R
BUFFALO WY     CLEAR     68  44  42 W12       30.18R
CODY           PTCLDY    66  46  48 SW7       30.23R
YELLOWSTONE LA   N/A     45  42  89 CALM      30.46R
IDAHO FALLS    CLEAR     57  53  86 N7        30.13R
SALMON         MOCLDY    63  48  59 CALM      30.09R
BOISE          MOCLDY    79  53  40 CALM      29.95R
SPOKANE        LGT RAIN  82  57  42 S13       29.95R
$$

REGIONAL REPORTS...ALBERTA

CITY           SKY/WX    TMP DP  RH WIND       PRES   REMARKS
EDMONTON       PTCLDY    61  52  72 E2        30.06S
CALGARY        MOCLDY    70  46  43 SE8       30.12F
LETHBRIDGE     PTCLDY    61  57  88 NE5       30.08S
MEDICINE HAT   CLEAR     64  52  63 NE5       30.06S
WATERTON GATE    N/A     52  50  93 SW1         N/A
ONEFOUR          N/A     70  48  46 NE8         N/A
$$

REGIONAL REPORTS...SASKATCHEWAN

CITY           SKY/WX    TMP DP  RH WIND       PRES   REMARKS
SWIFT CURRENT  CLEAR     61  55  82 N8        30.05R
REGINA         PTCLDY    66  55  68 NE5       29.99R
SASKATOON        N/A     59  52  77 N6        30.04R SMOKE
CYPRESS HILLS    N/A     61  48  63 N2          N/A
VAL MARIE        N/A     59  52  77 E1          N/A
ASSINIBOIA       N/A     55  52  88 W1          N/A
$$



USA.gov is the U.S. government's official web portal to all federal, state and local government web resources and services.